North Windham, CT

1:24 AM EDT on September 30, 2016 (GMT -0400)
Windham

Weather History for KIJD - May, 2013

Change the Weather History Date:

Tuesday, May 14, 2013

  Actual Average Record
Temperature  
Mean Temperature 46 °F -  
Max Temperature 59 °F 69 °F 83 °F (1970)
Min Temperature 36 °F 43 °F 29 °F (1958)
Degree Days  
Heating Degree Days 18    
Moisture  
Dew Point 29 °F    
Average Humidity 52    
Maximum Humidity 83    
Minimum Humidity 30    
Precipitation  
Precipitation 0.00 in - - ()
Sea Level Pressure  
Sea Level Pressure 30.05 in    
Wind  
Wind Speed 4 mph (NW)    
Max Wind Speed 12 mph    
Max Gust Speed 20 mph    
Visibility 10 miles    
Events      
Averages and records for this station are not official NWS values.
T = Trace of Precipitation, MM = Missing Value Source: NWS Daily Summary

Daily Weather History Graph

Daily Weather History Graph

Search for Another Location

Airport or City:

Trip Planner

Search our weather history database for the weather conditions in past years. The results will help you decide how hot, cold, wet, or windy it might be!

Date:

Astronomy

May. 14, 2013 Rise Set
Actual Time 5:29 AM EDT 8:01 PM EDT
Civil Twilight 4:58 AM EDT 8:32 PM EDT
Nautical Twilight 4:18 AM EDT 9:12 PM EDT
Astronomical Twilight 3:34 AM EDT 9:56 PM EDT
Moon 9:06 AM EDT (5/14) 11:46 PM EDT (5/14)
Length of Visible Light 15h 34m
Length of Day
14h 31m
Waxing Crescent, 19% of the Moon is Illuminated
May 14
Waxing Crescent
May 18
First Quarter
May 25
Full
May 31
Last Quarter
Jun 8
New

Hourly Weather History & Observations

Time (EDT) Temp. Windchill Dew Point Humidity Pressure Visibility Wind Dir Wind Speed Gust Speed Precip Events Conditions
12:52 AM 43.0 °F 41.3 °F 30.0 °F 60% 30.04 in 10.0 mi Variable 3.5 mph - N/A   Clear
1:52 AM 43.0 °F 39.5 °F 30.0 °F 60% 30.04 in 10.0 mi WNW 5.8 mph - N/A   Clear
2:52 AM 41.0 °F - 30.0 °F 65% 30.05 in 10.0 mi Calm Calm - N/A   Clear
3:52 AM 37.9 °F - 30.9 °F 76% 30.04 in 10.0 mi Calm Calm - N/A   Clear
4:52 AM 36.0 °F - 30.9 °F 82% 30.05 in 10.0 mi Calm Calm - N/A   Clear
5:52 AM 37.0 °F - 32.0 °F 82% 30.06 in 10.0 mi Calm Calm - N/A   Overcast
6:52 AM 42.1 °F - 33.1 °F 70% 30.07 in 10.0 mi Calm Calm - N/A   Overcast
7:52 AM 48.0 °F - 28.9 °F 48% 30.08 in 10.0 mi North 5.8 mph - N/A   Mostly Cloudy
8:52 AM 50.0 °F - 28.9 °F 44% 30.07 in 10.0 mi North 9.2 mph - 0.00 in   Clear
9:52 AM 53.1 °F - 28.0 °F 38% 30.05 in 10.0 mi NW 10.4 mph - 0.00 in   Clear
10:52 AM 55.0 °F - 25.0 °F 31% 30.05 in 10.0 mi NNW 8.1 mph - 0.00 in   Overcast
11:52 AM 54.0 °F - 27.0 °F 35% 30.05 in 10.0 mi NW 8.1 mph - N/A   Overcast
12:52 PM 55.9 °F - 25.0 °F 30% 30.05 in 10.0 mi NW 8.1 mph - N/A   Overcast
1:52 PM 55.9 °F - 25.0 °F 30% 30.05 in 10.0 mi North 4.6 mph 16.1 mph N/A   Overcast
2:52 PM 55.9 °F - 26.1 °F 32% 30.03 in 10.0 mi NW 3.5 mph - N/A   Mostly Cloudy
3:52 PM 55.9 °F - 26.1 °F 32% 30.02 in 10.0 mi NNW 10.4 mph - N/A   Scattered Clouds
4:52 PM 55.0 °F - 26.1 °F 33% 30.02 in 10.0 mi NW 11.5 mph 19.6 mph N/A   Overcast
5:52 PM 57.0 °F - 27.0 °F 32% 30.02 in 10.0 mi WNW 5.8 mph - N/A   Overcast
6:52 PM 55.9 °F - 26.1 °F 32% 30.01 in 10.0 mi NW 6.9 mph - N/A   Partly Cloudy
7:52 PM 52.0 °F - 28.0 °F 40% 30.02 in 10.0 mi Calm Calm - N/A   Clear
8:52 PM 45.0 °F - 35.1 °F 68% 30.06 in 10.0 mi Calm Calm - N/A   Scattered Clouds
9:52 PM 44.1 °F - 34.0 °F 68% 30.07 in 10.0 mi Calm Calm - N/A   Clear
10:52 PM 39.9 °F - 34.0 °F 79% 30.08 in 10.0 mi Calm Calm - N/A   Clear
11:52 PM 37.9 °F - 33.1 °F 83% 30.09 in 10.0 mi Calm Calm - N/A   Clear